| time (UTC) | temp C | wind direction | speed KPH | gust KPH | rain 1hr cm | rain 24hr cm | rain mn cm | humidity % | barometer mb |
| 20260509053507 | 13 | 161 | 3.2 | 12.9 | 0.00 | 0.00 | 0.00 | 65 | 1014.3 |
| 20260509053035 | 13 | 185 | 1.6 | 9.7 | 0.00 | 0.00 | 0.00 | 65 | 1014.2 |
| 20260509052506 | 14 | 115 | 3.2 | 9.7 | 0.00 | 0.00 | 0.00 | 64 | 1014.1 |
| 20260509052007 | 14 | 117 | 3.2 | 9.7 | 0.00 | 0.00 | 0.00 | 63 | 1014.0 |
| 20260509051524 | 14 | 157 | 1.6 | 9.7 | 0.00 | 0.00 | 0.00 | 63 | 1013.9 |
| 20260509051009 | 14 | 169 | 0.0 | 11.3 | 0.00 | 0.00 | 0.00 | 62 | 1013.8 |
| 20260509050511 | 14 | 160 | 3.2 | 11.3 | 0.00 | 0.00 | 0.00 | 62 | 1013.8 |
| 20260509050045 | 14 | 150 | 1.6 | 8.0 | 0.00 | 0.00 | 0.00 | 62 | 1013.8 |
| 20260509045503 | 15 | 165 | 1.6 | 11.3 | 0.00 | 0.00 | 0.00 | 61 | 1013.8 |
| 20260509045009 | 15 | 162 | 1.6 | 11.3 | 0.00 | 0.00 | 0.00 | 61 | 1013.8 |
| 20260509044524 | 15 | 158 | 3.2 | 11.3 | 0.00 | 0.00 | 0.00 | 61 | 1013.7 |
| 20260509044011 | 15 | 155 | 3.2 | 12.9 | 0.00 | 0.00 | 0.00 | 61 | 1013.7 |
| 20260509043510 | 15 | 167 | 1.6 | 12.9 | 0.00 | 0.00 | 0.00 | 61 | 1013.8 |
| 20260509043035 | 15 | 165 | 1.6 | 9.7 | 0.00 | 0.00 | 0.00 | 60 | 1013.7 |
| 20260509042509 | 15 | 127 | 1.6 | 6.4 | 0.00 | 0.00 | 0.00 | 60 | 1013.7 |
| 20260509042010 | 15 | 149 | 1.6 | 12.9 | 0.00 | 0.00 | 0.00 | 60 | 1013.8 |
| 20260509041528 | 15 | 187 | 3.2 | 12.9 | 0.00 | 0.00 | 0.00 | 59 | 1013.9 |
| 20260509041009 | 15 | 126 | 1.6 | 8.0 | 0.00 | 0.00 | 0.00 | 59 | 1013.9 |
| 20260509040510 | 15 | 193 | 0.0 | 8.0 | 0.00 | 0.00 | 0.00 | 60 | 1013.9 |
| 20260509040025 | 15 | 190 | 3.2 | 9.7 | 0.00 | 0.00 | 0.00 | 58 | 1013.9 |
| 20260509035505 | 15 | 136 | 3.2 | 9.7 | 0.00 | 0.00 | 0.00 | 58 | 1013.9 |
| 20260509035009 | 15 | 153 | 1.6 | 11.3 | 0.00 | 0.00 | 0.00 | 58 | 1014.0 |
| 20260509034528 | 15 | 153 | 1.6 | 11.3 | 0.00 | 0.00 | 0.00 | 57 | 1014.0 |
| 20260509034005 | 15 | 155 | 3.2 | 14.5 | 0.00 | 0.00 | 0.00 | 57 | 1014.1 |
| 20260509033514 | 15 | 205 | 3.2 | 14.5 | 0.00 | 0.00 | 0.00 | 56 | 1014.1 |
| 20260509033036 | 15 | 126 | 3.2 | 14.5 | 0.00 | 0.00 | 0.00 | 56 | 1014.3 |
| 20260509032507 | 15 | 182 | 4.8 | 14.5 | 0.00 | 0.00 | 0.00 | 56 | 1014.4 |
| 20260509032009 | 15 | 156 | 1.6 | 8.0 | 0.00 | 0.00 | 0.00 | 56 | 1014.4 |
| 20260509031531 | 15 | 148 | 1.6 | 6.4 | 0.00 | 0.00 | 0.00 | 56 | 1014.3 |
| 20260509031007 | 15 | 165 | 1.6 | 11.3 | 0.00 | 0.00 | 0.00 | 55 | 1014.4 |
| 20260509030514 | 15 | 197 | 1.6 | 11.3 | 0.00 | 0.00 | 0.00 | 55 | 1014.2 |
| 20260509030017 | 16 | 156 | 1.6 | 8.0 | 0.00 | 0.00 | 0.00 | 54 | 1014.2 |
| 20260509025507 | 16 | 195 | 1.6 | 8.0 | 0.00 | 0.00 | 0.00 | 54 | 1014.2 |
| 20260509025002 | 16 | 115 | 3.2 | 9.7 | 0.00 | 0.00 | 0.00 | 54 | 1014.3 |
| 20260509024509 | 16 | 150 | 1.6 | 9.7 | 0.00 | 0.00 | 0.00 | 53 | 1014.4 |
| 20260509024011 | 16 | 153 | 1.6 | 9.7 | 0.00 | 0.00 | 0.00 | 54 | 1014.3 |
| 20260509023503 | 15 | 157 | 1.6 | 6.4 | 0.00 | 0.00 | 0.00 | 54 | 1014.4 |
| 20260509023012 | 16 | 166 | 1.6 | 9.7 | 0.00 | 0.00 | 0.00 | 54 | 1014.3 |
| 20260509022507 | 16 | 104 | 1.6 | 9.7 | 0.00 | 0.00 | 0.00 | 54 | 1014.3 |
| 20260509022002 | 16 | 150 | 3.2 | 9.7 | 0.00 | 0.00 | 0.00 | 53 | 1014.2 |
| 20260509021512 | 16 | 155 | 1.6 | 8.0 | 0.00 | 0.00 | 0.00 | 53 | 1014.3 |
| 20260509021008 | 16 | 138 | 1.6 | 6.4 | 0.00 | 0.00 | 0.00 | 52 | 1014.3 |
| 20260509020503 | 16 | 153 | 1.6 | 6.4 | 0.00 | 0.00 | 0.00 | 52 | 1014.3 |
| 20260509020014 | 16 | 207 | 1.6 | 6.4 | 0.00 | 0.00 | 0.00 | 52 | 1014.3 |
| 20260509015510 | 16 | 174 | 1.6 | 6.4 | 0.00 | 0.00 | 0.00 | 52 | 1014.3 |
| 20260509015010 | 15 | 159 | 1.6 | 6.4 | 0.00 | 0.00 | 0.00 | 52 | 1014.1 |
| 20260509014513 | 15 | 176 | 1.6 | 6.4 | 0.00 | 0.00 | 0.00 | 53 | 1014.1 |
| 20260509014002 | 15 | 157 | 1.6 | 8.0 | 0.00 | 0.00 | 0.00 | 52 | 1014.1 |
| 20260509013502 | 15 | 151 | 0.0 | 8.0 | 0.00 | 0.00 | 0.00 | 54 | 1014.1 |
| 20260509013014 | 15 | 158 | 1.6 | 3.2 | 0.00 | 0.00 | 0.00 | 55 | 1014.1 |
| 20260509012502 | 15 | 120 | 0.0 | 3.2 | 0.00 | 0.00 | 0.00 | 56 | 1014.0 |
| 20260509012003 | 15 | 150 | 1.6 | 3.2 | 0.00 | 0.00 | 0.00 | 56 | 1014.0 |
| 20260509011517 | 15 | 144 | 0.0 | 3.2 | 0.00 | 0.00 | 0.00 | 58 | 1013.9 |
| 20260509011005 | 15 | 161 | 0.0 | 3.2 | 0.00 | 0.00 | 0.00 | 56 | 1013.9 |
| 20260509010503 | 15 | 165 | 0.0 | 0.0 | 0.00 | 0.00 | 0.00 | 56 | 1013.9 |
| 20260509010017 | 15 | 165 | 0.0 | 0.0 | 0.00 | 0.00 | 0.00 | 55 | 1013.9 |
| 20260509005503 | 16 | 165 | 0.0 | 0.0 | 0.00 | 0.00 | 0.00 | 53 | 1013.8 |
| 20260509005006 | 16 | 155 | 0.0 | 0.0 | 0.00 | 0.00 | 0.00 | 52 | 1013.9 |
| 20260509004518 | 16 | 155 | 0.0 | 0.0 | 0.00 | 0.00 | 0.00 | 51 | 1013.9 |
| 20260509004003 | 16 | 155 | 0.0 | 0.0 | 0.00 | 0.00 | 0.00 | 50 | 1013.9 |
| 20260509003506 | 17 | 155 | 0.0 | 0.0 | 0.00 | 0.00 | 0.00 | 49 | 1014.0 |
| 20260509003021 | 17 | 155 | 0.0 | 0.0 | 0.00 | 0.00 | 0.00 | 47 | 1013.9 |
| 20260509002502 | 17 | 155 | 0.0 | 0.0 | 0.00 | 0.00 | 0.00 | 46 | 1013.9 |
| 20260509002010 | 17 | 155 | 0.0 | 0.0 | 0.00 | 0.00 | 0.00 | 45 | 1013.8 |
| 20260509001520 | 18 | 154 | 0.0 | 1.6 | 0.00 | 0.00 | 0.00 | 43 | 1013.8 |
| 20260509001005 | 18 | 154 | 0.0 | 4.8 | 0.00 | 0.00 | 0.00 | 43 | 1013.7 |
| 20260509000507 | 18 | 161 | 0.0 | 4.8 | 0.00 | 0.00 | 0.00 | 42 | 1013.7 |
| 20260509000035 | 18 | 150 | 0.0 | 6.4 | 0.00 | 0.00 | 0.00 | 41 | 1013.6 |
| 20260508235503 | 18 | 135 | 0.0 | 6.4 | 0.00 | 0.00 | 0.00 | 42 | 1013.4 |
| 20260508235007 | 18 | 173 | 1.6 | 4.8 | 0.00 | 0.00 | 0.00 | 41 | 1013.4 |
| 20260508234522 | 19 | 120 | 1.6 | 11.3 | 0.00 | 0.00 | 0.00 | 41 | 1013.4 |
| 20260508234003 | 19 | 178 | 1.6 | 11.3 | 0.00 | 0.00 | 0.00 | 40 | 1013.3 |
| 20260508233508 | 19 | 185 | 1.6 | 4.8 | 0.00 | 0.00 | 0.00 | 41 | 1013.2 |
| 20260508233022 | 19 | 155 | 0.0 | 4.8 | 0.00 | 0.00 | 0.00 | 41 | 1013.2 |
| 20260508232502 | 20 | 155 | 0.0 | 9.7 | 0.00 | 0.00 | 0.00 | 41 | 1013.1 |
| 20260508232006 | 20 | 85 | 1.6 | 9.7 | 0.00 | 0.00 | 0.00 | 41 | 1013.1 |
| 20260508231524 | 20 | 164 | 0.0 | 8.0 | 0.00 | 0.00 | 0.00 | 40 | 1013.1 |
| 20260508231005 | 20 | 152 | 0.0 | 11.3 | 0.00 | 0.00 | 0.00 | 39 | 1013.0 |
| 20260508230507 | 20 | 190 | 1.6 | 11.3 | 0.00 | 0.00 | 0.00 | 40 | 1013.0 |
| 20260508230022 | 20 | 196 | 3.2 | 11.3 | 0.00 | 0.00 | 0.00 | 40 | 1013.0 |
| 20260508225503 | 20 | 134 | 1.6 | 6.4 | 0.00 | 0.00 | 0.00 | 40 | 1013.0 |
| 20260508225009 | 20 | 88 | 0.0 | 6.4 | 0.00 | 0.00 | 0.00 | 41 | 1013.0 |
| 20260508224547 | 20 | 323 | 1.6 | 12.9 | 0.00 | 0.00 | 0.00 | 39 | 1012.9 |
| 20260508224006 | 20 | 150 | 0.0 | 12.9 | 0.00 | 0.00 | 0.00 | 39 | 1013.0 |
| 20260508223506 | 20 | 99 | 4.8 | 12.9 | 0.00 | 0.00 | 0.00 | 38 | 1013.0 |
| 20260508223025 | 20 | 133 | 1.6 | 9.7 | 0.00 | 0.00 | 0.00 | 37 | 1013.0 |
| 20260508222504 | 20 | 116 | 1.6 | 9.7 | 0.00 | 0.00 | 0.00 | 39 | 1013.0 |
| 20260508222011 | 20 | 195 | 0.0 | 6.4 | 0.00 | 0.00 | 0.00 | 37 | 1013.1 |
| 20260508221531 | 20 | 142 | 1.6 | 9.7 | 0.00 | 0.00 | 0.00 | 36 | 1013.2 |
| 20260508221008 | 20 | 123 | 0.0 | 9.7 | 0.00 | 0.00 | 0.00 | 37 | 1013.3 |
| 20260508220506 | 20 | 126 | 1.6 | 9.7 | 0.00 | 0.00 | 0.00 | 36 | 1013.4 |
| 20260508220031 | 21 | 28 | 1.6 | 8.0 | 0.00 | 0.00 | 0.00 | 38 | 1013.4 |
| 20260508215507 | 21 | 201 | 0.0 | 4.8 | 0.00 | 0.00 | 0.00 | 38 | 1013.4 |
| 20260508215006 | 21 | 130 | 0.0 | 4.8 | 0.00 | 0.00 | 0.00 | 37 | 1013.4 |
| 20260508214535 | 21 | 100 | 1.6 | 4.8 | 0.00 | 0.00 | 0.00 | 37 | 1013.4 |
| 20260508214006 | 21 | 133 | 0.0 | 8.0 | 0.00 | 0.00 | 0.00 | 38 | 1013.4 |
| 20260508213507 | 21 | 132 | 1.6 | 8.0 | 0.00 | 0.00 | 0.00 | 38 | 1013.4 |
| 20260508213032 | 21 | 317 | 1.6 | 9.7 | 0.00 | 0.00 | 0.00 | 38 | 1013.4 |
| 20260508212507 | 21 | 40 | 0.0 | 9.7 | 0.00 | 0.00 | 0.00 | 35 | 1013.4 |
| 20260508212009 | 21 | 146 | 3.2 | 8.0 | 0.00 | 0.00 | 0.00 | 35 | 1013.5 |
| 20260508211527 | 21 | 21 | 0.0 | 4.8 | 0.00 | 0.00 | 0.00 | 34 | 1013.3 |
| 20260508211007 | 21 | 360 | 0.0 | 6.4 | 0.00 | 0.00 | 0.00 | 38 | 1013.3 |
| 20260508210510 | 21 | 114 | 1.6 | 6.4 | 0.00 | 0.00 | 0.00 | 34 | 1013.3 |
| 20260508210028 | 21 | 235 | 0.0 | 6.4 | 0.00 | 0.00 | 0.00 | 38 | 1013.3 |
| 20260508205507 | 21 | 355 | 1.6 | 8.0 | 0.00 | 0.00 | 0.00 | 36 | 1013.4 |
| 20260508205009 | 21 | 205 | 1.6 | 11.3 | 0.00 | 0.00 | 0.00 | 37 | 1013.5 |
| 20260508204528 | 21 | 88 | 3.2 | 11.3 | 0.00 | 0.00 | 0.00 | 34 | 1013.5 |
| 20260508204006 | 21 | 52 | 1.6 | 11.3 | 0.00 | 0.00 | 0.00 | 34 | 1013.6 |
| 20260508203514 | 21 | 350 | 1.6 | 11.3 | 0.00 | 0.03 | 0.00 | 36 | 1013.7 |
| 20260508203028 | 21 | 163 | 1.6 | 12.9 | 0.00 | 0.05 | 0.00 | 37 | 1013.7 |
| 20260508202507 | 21 | 177 | 1.6 | 12.9 | 0.00 | 0.08 | 0.00 | 37 | 1013.7 |
| 20260508202012 | 21 | 130 | 6.4 | 12.9 | 0.00 | 0.10 | 0.00 | 34 | 1013.7 |
| 20260508201509 | 21 | 189 | 0.0 | 14.5 | 0.00 | 0.13 | 0.00 | 38 | 1013.7 |
| 20260508201008 | 21 | 90 | 1.6 | 14.5 | 0.00 | 0.15 | 0.00 | 38 | 1013.8 |
| 20260508200507 | 21 | 327 | 4.8 | 14.5 | 0.00 | 0.15 | 0.00 | 35 | 1013.8 |
| 20260508200027 | 21 | 15 | 1.6 | 9.7 | 0.00 | 0.18 | 0.00 | 38 | 1014.0 |
| 20260508195509 | 21 | 107 | 0.0 | 16.1 | 0.00 | 0.18 | 0.00 | 36 | 1014.0 |
| 20260508195009 | 21 | 30 | 1.6 | 16.1 | 0.00 | 0.18 | 0.00 | 35 | 1013.9 |
| 20260508194514 | 21 | 178 | 1.6 | 11.3 | 0.00 | 0.23 | 0.00 | 45 | 1014.0 |
| 20260508194011 | 21 | 134 | 3.2 | 11.3 | 0.00 | 0.28 | 0.00 | 36 | 1014.0 |
| 20260508193509 | 21 | 181 | 3.2 | 12.9 | 0.00 | 0.28 | 0.00 | 36 | 1014.1 |
| 20260508193024 | 21 | 144 | 3.2 | 12.9 | 0.00 | 0.28 | 0.00 | 39 | 1014.2 |
| 20260508192515 | 21 | 42 | 1.6 | 9.7 | 0.00 | 0.28 | 0.00 | 39 | 1014.1 |
| 20260508192014 | 20 | 154 | 3.2 | 8.0 | 0.00 | 0.28 | 0.00 | 37 | 1014.4 |
| 20260508191512 | 21 | 5 | 4.8 | 9.7 | 0.00 | 0.28 | 0.00 | 38 | 1014.5 |
| 20260508191007 | 20 | 30 | 1.6 | 9.7 | 0.00 | 0.28 | 0.00 | 35 | 1014.6 |
| 20260508190515 | 21 | 355 | 3.2 | 9.7 | 0.00 | 0.28 | 0.00 | 37 | 1014.7 |
| 20260508190018 | 21 | 218 | 0.0 | 6.4 | 0.00 | 0.28 | 0.00 | 38 | 1014.9 |
| 20260508185507 | 21 | 190 | 1.6 | 6.4 | 0.00 | 0.28 | 0.00 | 35 | 1014.9 |
| 20260508185010 | 20 | 160 | 1.6 | 6.4 | 0.00 | 0.28 | 0.00 | 37 | 1015.0 |
| 20260508184524 | 20 | 50 | 1.6 | 6.4 | 0.00 | 0.28 | 0.00 | 40 | 1015.2 |
| 20260508184009 | 20 | 30 | 0.0 | 6.4 | 0.00 | 0.28 | 0.00 | 41 | 1015.1 |
| 20260508183512 | 20 | 140 | 1.6 | 9.7 | 0.00 | 0.28 | 0.00 | 36 | 1015.1 |
| 20260508183017 | 20 | 175 | 1.6 | 9.7 | 0.00 | 0.28 | 0.00 | 37 | 1015.2 |
| 20260508182507 | 20 | 150 | 1.6 | 8.0 | 0.00 | 0.28 | 0.00 | 35 | 1015.2 |
| 20260508182013 | 20 | 132 | 0.0 | 4.8 | 0.00 | 0.28 | 0.00 | 41 | 1015.3 |
| 20260508181516 | 21 | 148 | 1.6 | 4.8 | 0.00 | 0.28 | 0.00 | 39 | 1015.4 |
| 20260508181013 | 20 | 117 | 1.6 | 6.4 | 0.00 | 0.28 | 0.00 | 46 | 1015.4 |
| 20260508180510 | 20 | 177 | 0.0 | 9.7 | 0.00 | 0.28 | 0.00 | 43 | 1015.5 |
| 20260508180012 | 20 | 158 | 1.6 | 9.7 | 0.00 | 0.28 | 0.00 | 44 | 1015.6 |
| 20260508175504 | 20 | 9 | 3.2 | 9.7 | 0.00 | 0.28 | 0.00 | 43 | 1015.6 |
| 20260508175006 | 20 | 29 | 1.6 | 9.7 | 0.00 | 0.28 | 0.00 | 39 | 1015.6 |
| 20260508174510 | 20 | 329 | 1.6 | 9.7 | 0.00 | 0.28 | 0.00 | 46 | 1015.7 |
| 20260508174001 | 19 | 147 | 1.6 | 12.9 | 0.00 | 0.28 | 0.00 | 41 | 1015.6 |
| 20260508173505 | 20 | 229 | 1.6 | 12.9 | 0.00 | 0.28 | 0.00 | 38 | 1015.8 |
| 20260508173017 | 19 | 146 | 4.8 | 11.3 | 0.00 | 0.28 | 0.00 | 37 | 1015.9 |
| 20260508172504 | 20 | 192 | 1.6 | 8.0 | 0.00 | 0.28 | 0.00 | 39 | 1016.0 |
| 20260508172005 | 19 | 56 | 1.6 | 8.0 | 0.00 | 0.28 | 0.00 | 44 | 1016.1 |
| 20260508171528 | 20 | 130 | 1.6 | 8.0 | 0.00 | 0.28 | 0.00 | 44 | 1016.2 |
| 20260508171005 | 19 | 195 | 1.6 | 11.3 | 0.00 | 0.28 | 0.00 | 40 | 1016.3 |
| 20260508170504 | 19 | 166 | 3.2 | 11.3 | 0.00 | 0.28 | 0.00 | 45 | 1016.4 |
| 20260508170012 | 19 | 169 | 0.0 | 11.3 | 0.00 | 0.28 | 0.00 | 48 | 1016.4 |
| 20260508165503 | 18 | 159 | 1.6 | 11.3 | 0.00 | 0.28 | 0.00 | 46 | 1016.5 |
| 20260508165004 | 19 | 215 | 1.6 | 8.0 | 0.00 | 0.28 | 0.00 | 42 | 1016.6 |
| 20260508164518 | 18 | 138 | 3.2 | 8.0 | 0.00 | 0.28 | 0.00 | 45 | 1016.6 |
| 20260508164004 | 18 | 149 | 1.6 | 9.7 | 0.00 | 0.28 | 0.00 | 43 | 1016.8 |
| 20260508163509 | 18 | 108 | 1.6 | 9.7 | 0.00 | 0.28 | 0.00 | 44 | 1016.9 |
| 20260508163015 | 18 | 144 | 0.0 | 6.4 | 0.00 | 0.28 | 0.00 | 44 | 1017.0 |
| 20260508162506 | 18 | 343 | 1.6 | 6.4 | 0.00 | 0.28 | 0.00 | 45 | 1017.1 |
| 20260508162006 | 18 | 360 | 1.6 | 6.4 | 0.00 | 0.28 | 0.00 | 41 | 1017.3 |
| 20260508161523 | 18 | 127 | 1.6 | 6.4 | 0.00 | 0.28 | 0.00 | 51 | 1017.3 |
| 20260508161002 | 18 | 184 | 0.0 | 9.7 | 0.00 | 0.28 | 0.00 | 44 | 1017.3 |
| 20260508160505 | 17 | 237 | 1.6 | 9.7 | 0.00 | 0.28 | 0.00 | 50 | 1017.4 |
| 20260508160020 | 16 | 63 | 1.6 | 9.7 | 0.00 | 0.28 | 0.00 | 46 | 1017.4 |
| 20260508155505 | 17 | 109 | 3.2 | 9.7 | 0.00 | 0.28 | 0.00 | 52 | 1017.5 |
| 20260508155009 | 17 | 226 | 0.0 | 8.0 | 0.00 | 0.28 | 0.00 | 51 | 1017.5 |
| 20260508154516 | 17 | 30 | 0.0 | 6.4 | 0.00 | 0.28 | 0.00 | 48 | 1017.5 |
| 20260508154003 | 17 | 144 | 0.0 | 6.4 | 0.00 | 0.28 | 0.00 | 49 | 1017.5 |
| 20260508153507 | 16 | 144 | 1.6 | 6.4 | 0.00 | 0.28 | 0.00 | 53 | 1017.5 |
| 20260508153015 | 16 | 78 | 1.6 | 6.4 | 0.00 | 0.28 | 0.00 | 52 | 1017.6 |
| 20260508152505 | 16 | 48 | 3.2 | 6.4 | 0.00 | 0.28 | 0.00 | 47 | 1017.6 |
| 20260508152008 | 16 | 67 | 0.0 | 4.8 | 0.00 | 0.28 | 0.00 | 51 | 1017.7 |
| 20260508151515 | 15 | 5 | 0.0 | 4.8 | 0.00 | 0.28 | 0.00 | 54 | 1017.6 |
| 20260508151008 | 15 | 40 | 1.6 | 4.8 | 0.00 | 0.28 | 0.00 | 50 | 1017.7 |
| 20260508150508 | 15 | 15 | 1.6 | 8.0 | 0.00 | 0.28 | 0.00 | 60 | 1017.7 |
| 20260508150022 | 15 | 355 | 3.2 | 8.0 | 0.00 | 0.28 | 0.00 | 51 | 1017.7 |
| 20260508145505 | 16 | 334 | 1.6 | 4.8 | 0.00 | 0.28 | 0.00 | 52 | 1017.8 |
| 20260508145006 | 15 | 287 | 0.0 | 4.8 | 0.00 | 0.28 | 0.00 | 58 | 1017.7 |
| 20260508144505 | 15 | 49 | 0.0 | 4.8 | 0.00 | 0.28 | 0.00 | 58 | 1017.8 |
| 20260508144004 | 15 | 64 | 3.2 | 4.8 | 0.00 | 0.28 | 0.00 | 52 | 1017.7 |
| 20260508143506 | 15 | 329 | 1.6 | 4.8 | 0.00 | 0.28 | 0.00 | 59 | 1017.7 |
| 20260508143016 | 15 | 26 | 1.6 | 4.8 | 0.00 | 0.28 | 0.00 | 59 | 1017.8 |
| 20260508142504 | 15 | 5 | 0.0 | 6.4 | 0.00 | 0.28 | 0.00 | 62 | 1017.8 |
| 20260508142008 | 15 | 315 | 0.0 | 6.4 | 0.00 | 0.28 | 0.00 | 64 | 1017.8 |
| 20260508141514 | 14 | 329 | 1.6 | 6.4 | 0.00 | 0.28 | 0.00 | 64 | 1017.7 |
| 20260508141008 | 13 | 35 | 3.2 | 6.4 | 0.00 | 0.28 | 0.00 | 66 | 1017.8 |
| 20260508140506 | 13 | 19 | 1.6 | 4.8 | 0.00 | 0.28 | 0.00 | 68 | 1017.8 |
| 20260508140006 | 13 | 30 | 0.0 | 4.8 | 0.00 | 0.28 | 0.00 | 76 | 1017.6 |
| 20260508135507 | 13 | 101 | 0.0 | 4.8 | 0.00 | 0.28 | 0.00 | 78 | 1017.7 |
| 20260508135011 | 12 | 94 | 0.0 | 4.8 | 0.00 | 0.28 | 0.00 | 82 | 1017.7 |
| 20260508134506 | 12 | 92 | 0.0 | 1.6 | 0.00 | 0.28 | 0.00 | 84 | 1017.8 |
| 20260508134006 | 12 | 5 | 0.0 | 1.6 | 0.00 | 0.28 | 0.00 | 84 | 1017.8 |
| 20260508133509 | 11 | 64 | 0.0 | 1.6 | 0.00 | 0.28 | 0.00 | 87 | 1017.7 |
| 20260508133009 | 11 | 355 | 0.0 | 1.6 | 0.00 | 0.28 | 0.00 | 90 | 1017.7 |
| 20260508132505 | 11 | 83 | 0.0 | 1.6 | 0.00 | 0.28 | 0.00 | 93 | 1017.7 |
| 20260508132008 | 10 | 142 | 0.0 | 1.6 | 0.00 | 0.28 | 0.00 | 94 | 1017.7 |
| 20260508131508 | 10 | 332 | 0.0 | 3.2 | 0.00 | 0.28 | 0.00 | 95 | 1017.8 |
| 20260508131012 | 10 | 338 | 0.0 | 3.2 | 0.00 | 0.28 | 0.00 | 96 | 1017.9 |
| 20260508130507 | 10 | 355 | 0.0 | 1.6 | 0.00 | 0.28 | 0.00 | 96 | 1017.9 |
| 20260508130014 | 10 | 309 | 0.0 | 4.8 | 0.00 | 0.28 | 0.00 | 96 | 1017.9 |
| 20260508125511 | 9 | 336 | 0.0 | 4.8 | 0.00 | 0.28 | 0.00 | 96 | 1017.9 |
| 20260508125009 | 9 | 336 | 1.6 | 4.8 | 0.00 | 0.28 | 0.00 | 96 | 1017.9 |
| 20260508124513 | 9 | 39 | 1.6 | 3.2 | 0.00 | 0.28 | 0.00 | 97 | 1017.9 |
| 20260508124011 | 8 | 51 | 0.0 | 3.2 | 0.00 | 0.28 | 0.00 | 97 | 1017.8 |
| 20260508123509 | 8 | 18 | 0.0 | 3.2 | 0.00 | 0.28 | 0.00 | 97 | 1017.7 |
| 20260508123013 | 8 | 28 | 0.0 | 4.8 | 0.00 | 0.28 | 0.00 | 97 | 1017.7 |
| 20260508122509 | 8 | 24 | 0.0 | 4.8 | 0.00 | 0.28 | 0.00 | 97 | 1017.7 |
| 20260508122011 | 8 | 322 | 1.6 | 4.8 | 0.00 | 0.28 | 0.00 | 97 | 1017.7 |
| 20260508121518 | 8 | 350 | 0.0 | 3.2 | 0.00 | 0.28 | 0.00 | 97 | 1017.5 |
| 20260508121008 | 7 | 350 | 0.0 | 0.0 | 0.00 | 0.28 | 0.00 | 97 | 1017.5 |
| 20260508120507 | 7 | 350 | 0.0 | 0.0 | 0.00 | 0.28 | 0.00 | 97 | 1017.3 |
| 20260508120019 | 7 | 350 | 0.0 | 0.0 | 0.00 | 0.28 | 0.00 | 97 | 1017.2 |
| 20260508115502 | 7 | 350 | 0.0 | 0.0 | 0.00 | 0.28 | 0.00 | 96 | 1017.1 |
| 20260508115002 | 6 | 350 | 0.0 | 0.0 | 0.00 | 0.28 | 0.00 | 96 | 1017.1 |
| 20260508114527 | 6 | 350 | 0.0 | 0.0 | 0.00 | 0.28 | 0.00 | 96 | 1016.9 |
| 20260508114001 | 6 | 350 | 0.0 | 0.0 | 0.00 | 0.28 | 0.00 | 96 | 1016.8 |
| 20260508113505 | 6 | 350 | 0.0 | 0.0 | 0.00 | 0.28 | 0.00 | 96 | 1016.8 |
| 20260508113018 | 6 | 350 | 0.0 | 0.0 | 0.00 | 0.28 | 0.00 | 96 | 1016.7 |
| 20260508112503 | 6 | 350 | 0.0 | 0.0 | 0.00 | 0.28 | 0.00 | 96 | 1016.5 |
| 20260508112006 | 6 | 350 | 0.0 | 0.0 | 0.00 | 0.28 | 0.00 | 96 | 1016.5 |
| 20260508111515 | 6 | 350 | 0.0 | 0.0 | 0.00 | 0.28 | 0.00 | 96 | 1016.4 |
| 20260508111004 | 6 | 350 | 0.0 | 0.0 | 0.00 | 0.28 | 0.00 | 96 | 1016.3 |
| 20260508110504 | 6 | 350 | 0.0 | 0.0 | 0.00 | 0.28 | 0.00 | 96 | 1016.2 |
| 20260508110019 | 6 | 350 | 0.0 | 0.0 | 0.00 | 0.28 | 0.00 | 95 | 1016.1 |
| 20260508105503 | 6 | 350 | 0.0 | 0.0 | 0.00 | 0.28 | 0.00 | 95 | 1016.1 |
| 20260508105003 | 6 | 350 | 0.0 | 0.0 | 0.00 | 0.28 | 0.00 | 95 | 1015.9 |
| 20260508104518 | 6 | 350 | 0.0 | 0.0 | 0.00 | 0.28 | 0.00 | 96 | 1015.8 |
| 20260508104004 | 6 | 350 | 0.0 | 0.0 | 0.00 | 0.28 | 0.00 | 96 | 1015.8 |
| 20260508103505 | 6 | 350 | 0.0 | 0.0 | 0.00 | 0.28 | 0.00 | 96 | 1015.7 |
| 20260508103018 | 6 | 350 | 0.0 | 0.0 | 0.00 | 0.30 | 0.00 | 96 | 1015.7 |
| 20260508102503 | 6 | 350 | 0.0 | 0.0 | 0.00 | 0.30 | 0.00 | 96 | 1015.7 |
| 20260508102006 | 6 | 350 | 0.0 | 0.0 | 0.00 | 0.30 | 0.00 | 96 | 1015.7 |
| 20260508101530 | 6 | 350 | 0.0 | 0.0 | 0.00 | 0.30 | 0.00 | 96 | 1015.6 |
| 20260508101003 | 6 | 350 | 0.0 | 0.0 | 0.00 | 0.30 | 0.00 | 96 | 1015.7 |
| 20260508100508 | 6 | 350 | 0.0 | 0.0 | 0.00 | 0.30 | 0.00 | 96 | 1015.6 |
| 20260508100032 | 6 | 350 | 0.0 | 0.0 | 0.00 | 0.30 | 0.00 | 95 | 1015.5 |
| 20260508095506 | 6 | 350 | 0.0 | 0.0 | 0.00 | 0.30 | 0.00 | 95 | 1015.4 |
| 20260508095007 | 6 | 350 | 0.0 | 0.0 | 0.00 | 0.30 | 0.00 | 95 | 1015.4 |
| 20260508094526 | 6 | 350 | 0.0 | 0.0 | 0.00 | 0.30 | 0.00 | 95 | 1015.3 |
| 20260508094003 | 6 | 350 | 0.0 | 0.0 | 0.00 | 0.30 | 0.00 | 95 | 1015.3 |
| 20260508093507 | 6 | 350 | 0.0 | 0.0 | 0.00 | 0.30 | 0.00 | 96 | 1015.3 |
| 20260508093001 | 7 | 350 | 0.0 | 0.0 | 0.00 | 0.30 | 0.00 | 96 | 1015.3 |
| 20260508092509 | 7 | 350 | 0.0 | 1.6 | 0.00 | 0.30 | 0.00 | 95 | 1015.2 |
| 20260508092007 | 7 | 350 | 0.0 | 1.6 | 0.00 | 0.33 | 0.00 | 95 | 1015.2 |
| 20260508091504 | 7 | 350 | 0.0 | 1.6 | 0.00 | 0.43 | 0.00 | 95 | 1015.1 |
| 20260508091005 | 7 | 350 | 0.0 | 1.6 | 0.00 | 0.48 | 0.00 | 96 | 1015.1 |
| 20260508090507 | 7 | 350 | 0.0 | 4.8 | 0.00 | 0.48 | 0.00 | 96 | 1015.0 |
| 20260508090005 | 7 | 342 | 0.0 | 4.8 | 0.00 | 0.51 | 0.00 | 95 | 1014.9 |
| 20260508085510 | 7 | 355 | 0.0 | 3.2 | 0.00 | 0.53 | 0.00 | 95 | 1014.9 |
| 20260508085008 | 7 | 360 | 0.0 | 1.6 | 0.00 | 0.56 | 0.00 | 95 | 1014.9 |
| 20260508084504 | 7 | 56 | 0.0 | 1.6 | 0.00 | 0.58 | 0.00 | 95 | 1014.8 |
| 20260508084006 | 7 | 56 | 0.0 | 0.0 | 0.00 | 0.61 | 0.00 | 95 | 1014.6 |
| 20260508083506 | 7 | 56 | 0.0 | 1.6 | 0.00 | 0.61 | 0.00 | 95 | 1014.6 |
| 20260508083005 | 7 | 57 | 0.0 | 1.6 | 0.00 | 0.61 | 0.00 | 95 | 1014.5 |
| 20260508082505 | 7 | 46 | 0.0 | 0.0 | 0.00 | 0.61 | 0.00 | 95 | 1014.4 |
| 20260508082008 | 7 | 46 | 0.0 | 0.0 | 0.00 | 0.64 | 0.00 | 95 | 1014.4 |
| 20260508081505 | 7 | 46 | 0.0 | 0.0 | 0.00 | 0.64 | 0.00 | 95 | 1014.3 |
| 20260508081007 | 7 | 46 | 0.0 | 0.0 | 0.00 | 0.64 | 0.00 | 95 | 1014.2 |
| 20260508080507 | 8 | 46 | 0.0 | 0.0 | 0.00 | 0.64 | 0.00 | 95 | 1014.2 |
| 20260508080004 | 8 | 46 | 0.0 | 0.0 | 0.00 | 0.64 | 0.00 | 95 | 1014.2 |
| 20260508075506 | 8 | 46 | 0.0 | 0.0 | 0.00 | 0.64 | 0.00 | 95 | 1014.2 |
| 20260508075008 | 8 | 46 | 0.0 | 0.0 | 0.00 | 0.64 | 0.00 | 96 | 1014.2 |
| 20260508074513 | 8 | 46 | 0.0 | 0.0 | 0.00 | 0.64 | 0.00 | 96 | 1014.2 |
| 20260508074009 | 8 | 45 | 0.0 | 0.0 | 0.00 | 0.64 | 0.00 | 96 | 1014.1 |
| 20260508073511 | 8 | 45 | 0.0 | 0.0 | 0.00 | 0.64 | 0.00 | 95 | 1014.1 |
| 20260508073003 | 8 | 45 | 0.0 | 1.6 | 0.00 | 0.64 | 0.00 | 96 | 1014.1 |
| 20260508072508 | 8 | 45 | 0.0 | 1.6 | 0.00 | 0.64 | 0.00 | 96 | 1014.1 |
| 20260508072010 | 8 | 45 | 0.0 | 1.6 | 0.00 | 0.64 | 0.00 | 96 | 1014.0 |
| 20260508071508 | 8 | 60 | 0.0 | 0.0 | 0.00 | 0.64 | 0.00 | 96 | 1014.0 |
| 20260508071007 | 7 | 60 | 0.0 | 0.0 | 0.00 | 0.64 | 0.00 | 96 | 1014.0 |
| 20260508070507 | 7 | 60 | 0.0 | 0.0 | 0.00 | 0.64 | 0.00 | 95 | 1013.9 |
| 20260508070006 | 7 | 60 | 0.0 | 0.0 | 0.00 | 0.64 | 0.00 | 95 | 1013.8 |
| 20260508065509 | 7 | 60 | 0.0 | 0.0 | 0.00 | 0.64 | 0.00 | 95 | 1013.8 |
| 20260508065008 | 7 | 60 | 0.0 | 0.0 | 0.00 | 0.64 | 0.00 | 95 | 1013.8 |
| 20260508064534 | 7 | 60 | 0.0 | 0.0 | 0.00 | 0.64 | 0.00 | 95 | 1013.9 |
| 20260508064005 | 7 | 60 | 0.0 | 1.6 | 0.00 | 0.64 | 0.00 | 95 | 1013.8 |
| 20260508063507 | 7 | 60 | 0.0 | 1.6 | 0.00 | 0.64 | 0.00 | 95 | 1013.8 |
| 20260508063010 | 7 | 60 | 0.0 | 1.6 | 0.00 | 0.64 | 0.00 | 95 | 1013.7 |
| 20260508062511 | 7 | 60 | 0.0 | 0.0 | 0.00 | 0.64 | 0.00 | 95 | 1013.6 |
| 20260508062009 | 7 | 60 | 0.0 | 0.0 | 0.00 | 0.64 | 0.00 | 96 | 1013.7 |
| 20260508061510 | 7 | 60 | 0.0 | 0.0 | 0.00 | 0.64 | 0.00 | 95 | 1013.7 |
| 20260508061011 | 7 | 60 | 0.0 | 1.6 | 0.00 | 0.64 | 0.00 | 96 | 1013.6 |
| 20260508060508 | 7 | 60 | 0.0 | 1.6 | 0.00 | 0.64 | 0.00 | 95 | 1013.6 |
| 20260508060011 | 7 | 172 | 0.0 | 0.0 | 0.00 | 0.64 | 0.00 | 95 | 1013.6 |
| 20260508055506 | 7 | 172 | 0.0 | 0.0 | 0.00 | 0.64 | 0.00 | 95 | 1013.5 |
| 20260508055008 | 7 | 172 | 0.0 | 0.0 | 0.00 | 0.64 | 0.00 | 95 | 1013.5 |
| 20260508054519 | 7 | 172 | 0.0 | 0.0 | 0.00 | 0.64 | 0.00 | 95 | 1013.4 |
| 20260508054009 | 7 | 172 | 0.0 | 0.0 | 0.00 | 0.64 | 0.00 | 95 | 1013.4 |